Regional Weather Roundup
Issued by NWS Charleston, SC

Current Version | Previous Version | Text Only | Print | Product List | Glossary Off
Versions: 1 2 3 4 5 6 7 8 9 10 11 12 13 14 15 16 17 18 19 20 21 22 23 24 25 26 27 28 29 30 31 32 33 34 35 36 37 38 39 40 41 42 43 44 45 46 47 48 49 50
966 ASUS42 KCHS 241826 RWRCHS REGIONAL WEATHER ROUNDUP NATIONAL WEATHER SERVICE CHARLESTON SC 100 PM EST FRI FEB 24 2017 NOTE: "FAIR" INDICATES FEW OR NO CLOUDS BELOW 12,000 FEET WITH NO SIGNIFICANT WEATHER AND/OR OBSTRUCTIONS TO VISIBILITY. NOT ALL STATIONS ARE QUALITY CONTROLLED. USE DATA WITH CAUTION... ESPECIALLY DEWPOINT OBSERVATIONS. SCZ027-030-031-034>040-042>050-241900- ...SOUTHEAST SOUTH CAROLINA... CITY SKY/WX TMP DP RH WIND PRES REMARKS N CHARLESTON MOSUNNY 79 58 48 E10 29.86F 6HR MIN TEMP: 55; 6HR MAX TEMP: 80; WATERFRONT PRK N/A 73 64 73 E8 29.86F MOUNT PLEASANT FAIR 77 63 61 E6 29.86F JOHNS ISLAND FAIR 75 63 64 E12 29.86 PINOPOLIS N/A 64 63 94 NW8 29.80F MONCKS CORNER MOCLDY 75 57 53 N5 29.85F SUMMERVILLE FAIR 77 55 47 NE5 29.86F BEAUFORT MCAS MOSUNNY 77 61 57 VRB6 29.86F 6HR MIN TEMP: 57; 6HR MAX TEMP: 78; BEAUFORT ARPT FAIR 77 59 53 NE9 29.85F HILTON HEAD IS SUNNY 73 64 73 NE7 29.88F WALTERBORO PTCLDY 77 57 50 CALM 29.86F ALLENDALE FAIR 77 57 50 VRB5 29.85F ...SOUTHERN MIDLANDS AND PEE DEE... CITY SKY/WX TMP DP RH WIND PRES REMARKS GEORGETOWN FAIR 73 61 64 E8 29.88F KINGSTREE FAIR 75 55 50 N5 29.86F ORANGEBURG MOSUNNY 76 58 53 E7 29.88F BARNWELL FAIR 79 59 50 VRB5 29.86F AIKEN FAIR 75 52 43 CALM 29.90F MANNING FAIR N/A N/A N/A MISG 29.87F COLUMBIA MOSUNNY 77 56 48 VRB3 29.87F 6HR MIN TEMP: 49; 6HR MAX TEMP: 77; SUMTER MOSUNNY 77 57 49 CALM 29.86F 6HR MIN TEMP: 51; 6HR MAX TEMP: 77; FLORENCE MOSUNNY 76 58 53 SE7 29.87F 6HR MIN TEMP: 53; 6HR MAX TEMP: 76; MYRTLE BEACH MOSUNNY 73 61 64 SE14 29.89F N MYRTLE BEACH SUNNY 74 61 63 SE9 29.87F 6HR MIN TEMP: 56; 6HR MAX TEMP: 75; $$ GAZ063-065-086>088-099>101-113>116-118-119-134>141-150-241900- ...SOUTHEAST GEORGIA... CITY SKY/WX TMP DP RH WIND PRES REMARKS SAVANNAH ARPT MOSUNNY 79 59 50 E6 29.86F 6HR MIN TEMP: 58; 6HR MAX TEMP: 80; HUNTER AAF SUNNY 77 66 68 E9 29.84F 6HR MIN TEMP: 59; 6HR MAX TEMP: 78; FORT STEWART MOSUNNY 76 60 58 E3 29.83F 6HR MIN TEMP: 57; 6HR MAX TEMP: 77; STATESBORO SUNNY 78 62 57 CALM 29.86F SYLVANIA CLEAR N/A N/A N/A SE3 29.86F CLAXTON MOCLDY 80 62 55 NE7 29.85F ...CSRA...CENTRAL AND FAR SOUTHEAST GEORGIA... CITY SKY/WX TMP DP RH WIND PRES REMARKS THOMSON MOSUNNY 78 59 51 SE5 29.91F AUGUSTA-BUSH SUNNY 79 55 43 SW5 29.86F 6HR MIN TEMP: 51; 6HR MAX TEMP: 80; AUGUSTA-DANIEL SUNNY 77 52 41 VRB6 29.88F SWAINSBORO FAIR 79 55 44 E6 29.86F VIDALIA MOSUNNY 79 63 57 E9 29.85F EASTMAN FAIR 81 40 23 E5 29.87F HAZLEHURST FAIR 79 63 58 E6 29.84F ALMA PTSUNNY 79 61 53 NE6 29.85F 6HR MIN TEMP: 57; 6HR MAX TEMP: 80; WAYCROSS MOSUNNY 82 66 59 S3 29.84F JESUP FAIR 79 59 50 S5 29.85F BAXLEY FAIR 79 63 57 SE3 29.84F BRUNSWICK MOSUNNY 77 68 73 E9 29.86F SAINT SIMONS SUNNY 74 63 68 NE13 29.86F 6HR MIN TEMP: 63; 6HR MAX TEMP: 75; $$ SCZ027-028-034-036>038-045-046-048>050-GAZ119-141-241900- ...LAKE AND SUPPLEMENTAL COASTAL OBSERVATIONS... STATION/POSITION TIME TEMP WIND PRES WAVE SWELL AIR SEA DIR/SP/G HT/PER HT/PER/DIR (UTC) (F) (DEG/KT/KT) (MB) (FT/S) (FT/S/D) WINYAH BAY 1730 68 70/ 12 1012.0S LAKE MURRAY 1820 76 CALM 1010.8 ACE BASIN NERRS 1745 78 60/ 2 1011.0F FORT PULASKI 1800 67 62 70/ 12/ 14 1011.7 SAPELO ISLAND 1800 75 60/ 10 1011.0 $$ ANZ835-935-AMZ111-154-330-350-352-354-370-450-454-472-241900- ...C-MAN AND BUOY OBSERVATIONS... STATION/POSITION TIME TEMP WIND PRES WAVE SWELL AIR SEA DIR/SP/G HT/PER HT/PER/DIR (UTC) (F) (DEG/KT/KT) (MB) (FT/S) (FT/S/D) BUOY 41004 1750 68 70 20/ 14/ 16 1010.5F 8/11 8/120/11 BUOY 41008 1750 63 63 20/ 10/ 12 1010.8F 5/11 5/ 80/11 FOLLY BEACH CMAN 1800 65 60/ 9/ 11 1012.1F CAPERS NEARSHORE 1708 63 61 60/ 10/ 12 1012.0F FRIPP NEARSHORE 1808 64 62 60/ 10/ 12 1011.4F STATION/POSITION TIME TEMP WIND PRES WAVE SWELL AIR SEA DIR/SP/G HT/PER HT/PER/DIR (UTC) (F) (DEG/KT/KT) (MB) (FT/S) (FT/S/D) 5E ST. MARYS GA 1800 64 N/A 5/11 3/100/11 FRYING PAN BUOY 1810 69 72 20/ 14/ 16 1010.8 BUOY 41025 1750 72 74 120/ 16/ 19 1011.9F 7/10 5/130/10 CAPE LOOKOUT NC 1800 67 40/ 10/ 10 1011.5F BUOY 41002 1750 70 70 100/ 12/ 14 1006.6F 12/11 11/110/11 BUOY 41010 NOT AVBL ST AUGUSTINE FL 1800 66 68 360/ 12/ 14 1011.3F $$

USA.gov is the U.S. government's official web portal to all federal, state and local government web resources and services.